This is the latest recevied weather packets stored in our database for station/object KF6ILA. If no packets are shown the sender has not sent any weather packets the latest 10 day(s).
| Time | Temp. | Humidity | Pressure | Rain* | Wind** | Luminosity | Snow |
|---|---|---|---|---|---|---|---|
| 1788060968 | 21.67° C | 58% | 1015.2 hPa | 0 mm | - | 0 W/m² | - |
| 1788060671 | 21.67° C | 58% | 1015 hPa | 0 mm | - | 0 W/m² | - |
| 1788060374 | 21.67° C | 59% | 1014.9 hPa | 0 mm | - | 0 W/m² | - |
| 1788059483 | 22.22° C | 58% | 1014.8 hPa | 0 mm | - | 0 W/m² | - |
| 1788058889 | 22.22° C | 57% | 1014.9 hPa | 0 mm | - | 0 W/m² | - |
| 1788058592 | 22.22° C | 57% | 1014.8 hPa | 0 mm | - | 0 W/m² | - |
| 1788058295 | 22.78° C | 56% | 1014.8 hPa | 0 mm | - | 0 W/m² | - |
| 1788057998 | 22.78° C | 56% | 1014.8 hPa | 0 mm | - | 0 W/m² | - |
| 1788057404 | 22.78° C | 55% | 1014.7 hPa | 0 mm | - | 0 W/m² | - |
| 1788057107 | 23.33° C | 54% | 1014.6 hPa | 0 mm | - | 0 W/m² | - |
| 1788056810 | 23.33° C | 54% | 1014.6 hPa | 0 mm | - | 0 W/m² | - |
| 1788055028 | 24.44° C | 52% | 1014.5 hPa | 0 mm | - | 14 W/m² | - |
| 1788054436 | 26.67° C | 48% | 1014.5 hPa | 0 mm | - | 167 W/m² | - |
| 1788054436 | 25° C | 49% | 1014.5 hPa | 0 mm | - | 46 W/m² | - |
| 1788054435 | 27.22° C | 48% | 1014.6 hPa | 0 mm | - | 264 W/m² | - |
| 1788054435 | 27.22° C | 48% | 1014.6 hPa | 0 mm | - | 299 W/m² | - |
| 1788054435 | 27.22° C | 48% | 1014.7 hPa | 0 mm | - | 281 W/m² | - |
| 1788054434 | 25° C | 51% | 1014.7 hPa | 0 mm | - | 33 W/m² | - |
| 1788054137 | 25° C | 49% | 1014.5 hPa | 0 mm | - | 46 W/m² | - |
| 1788052949 | 26.11° C | 48% | 1014.5 hPa | 0 mm | - | 121 W/m² | - |
| 1788052652 | 26.11° C | 48% | 1014.6 hPa | 0 mm | - | 141 W/m² | - |
| 1788052355 | 26.67° C | 48% | 1014.5 hPa | 0 mm | - | 167 W/m² | - |
| 1788052058 | 26.67° C | 48% | 1014.7 hPa | 0 mm | - | 185 W/m² | - |
| 1788051464 | 26.67° C | 48% | 1014.6 hPa | 0 mm | - | 225 W/m² | - |
| 1788051167 | 27.22° C | 48% | 1014.5 hPa | 0 mm | - | 244 W/m² | - |
* Rain latest hour (hover to see other rain measurements)
** Current wind speed in m/s (hover to see current wind gust speed)